Flag for U.S.A. Weather past 2 weeks in Warminster Township, Pennsylvania, U.S.A.

Now
85 °F

Passing clouds.


Feels Like: 88 °F
Forecast: 69 / 86 °F
Wind: 13 mph from South

Location: Doylestown Airport

Current Time: May 27, 2015 at 3:13:57 PM

Latest Report: May 27, 2015 at 2:54 PM


Visibility: 10 mi

Pressure: 30.08 "Hg

Humidity: 55%

Dew point: 67 °F

Location of Warminster TownshipLocation

Historic Weather in Warminster Township — Graph

°F

Warminster Township temperature yesterday

Maximum temperature yesterday: 85 °F (at 2:54 PM)
Minimum temperature yesterday: 61 °F (at 4:54 AM)
Average temperature yesterday: 74 °F

Past Weeks' High & Low Weather Summary

 TemperatureHumidityPressure
High85 °F (May 26, 2:54 PM)100% (May 16, 10:54 PM)30.44 "Hg (May 16, 10:54 PM)
Low41 °F (May 14, 5:54 AM)18% (May 14, 5:54 PM)29.77 "Hg (May 19, 6:54 PM)
Average63 °F62%30.13 "Hg
* Reported May 12 1:54 PM — May 27 1:54 PM, Warminster Township, Weather by CustomWeather, © 2015

Note: Actual official high and low records may vary slightly from our data, if they occured in-between our weather recording intervals... More about our weather records

Advertising

Warminster Township weather history for previous 24 hours

 ConditionsComfort  
Time TempWeatherWind HumidityBarometerVisibility
1:54 PM
Wed, May 27
82 °FPartly sunny.10 mph63%30.10 "Hg10 mi
12:54 PM81 °FScattered clouds.8 mph65%30.13 "Hg10 mi
11:54 AM80 °FPartly sunny.9 mph67%30.14 "Hg10 mi
10:54 AM75 °FOvercast.7 mph79%30.15 "Hg10 mi
9:54 AM73 °FOvercast.6 mph84%30.16 "Hg10 mi
8:54 AM73 °FOvercast.7 mph84%30.15 "Hg10 mi
7:54 AM71 °FOvercast.6 mph87%30.14 "Hg10 mi
6:54 AM69 °FOvercast.5 mph90%30.14 "Hg10 mi
5:54 AM68 °FPassing clouds.7 mph93%30.13 "Hg10 mi
4:54 AM68 °FClear.6 mph90%30.12 "Hg10 mi
3:54 AM68 °FClear.6 mph87%30.13 "Hg10 mi
2:54 AM68 °FClear.6 mph84%30.13 "Hg10 mi
1:54 AM69 °FClear.3 mph81%30.14 "Hg10 mi
12:54 AM71 °FClear.6 mph76%30.15 "Hg10 mi
11:54 PM
Tue, May 26
72 °FClear.5 mph76%30.15 "Hg10 mi
10:54 PM73 °FPassing clouds.7 mph74%30.15 "Hg10 mi
9:54 PM75 °FPassing clouds.7 mph69%30.14 "Hg10 mi
8:54 PM77 °FSunny.5 mph62%30.12 "Hg10 mi
7:54 PM79 °FSunny.6 mph56%30.12 "Hg10 mi
6:54 PM82 °FSunny.6 mph48%30.11 "Hg10 mi
5:54 PM83 °FSunny.9 mph44%30.12 "Hg10 mi
4:54 PM85 °FSunny.8 mph39%30.13 "Hg10 mi
3:54 PM84 °FSunny.12 mph41%30.14 "Hg10 mi
Weather by CustomWeather, © 2015

See weather overviewHow to use our weather pages